Regional Weather Roundup
Issued by NWS

Home | Current Version | Previous Version | Graphics & Text | Print | Product List | Glossary On
Versions: 1 2 3 4 5 6 7 8 9 10 11 12 13 14 15 16 17 18 19 20 21 22 23 24 25 26 27 28 29 30 31 32 33 34 35 36 37 38 39 40 41 42 43 44 45 46 47 48 49 50
000
ASUS43 KLMK 051910
RWRKY
KENTUCKY REGIONAL WEATHER ROUNDUP
NATIONAL WEATHER SERVICE LOUISVILLE KY
200 PM EST FRI FEB 05 2016

NOTE "FAIR" INDICATES FEW OR NO CLOUDS BELOW 12,000 FEET
WITH NO SIGNIFICANT WEATHER AND/OR OBSTRUCTIONS TO VISIBILITY.

KYZ001>023-026-027-061>063-070>075-052000-
WESTERN AND SOUTH CENTRAL KENTUCKY

CITY           SKY/WX    TMP DP  RH WIND       PRES   REMARKS
PADUCAH        SUNNY     50  21  32 W13       30.39F
HENDERSON      SUNNY     46  25  42 W8        30.38F
OWENSBORO      SUNNY     46  27  48 S9        30.40F
HOPKINSVILLE   SUNNY     48  19  31 SW6       30.40F
BOWLING GREEN  SUNNY     45  19  35 SW8       30.42F
GLASGOW        SUNNY     44  18  36 SW5       30.41F
$$

KYZ024-025-028>034-038-045-046-053-052000-
NORTH CENTRAL KENTUCKY

CITY           SKY/WX    TMP DP  RH WIND       PRES   REMARKS
LOUISVILLE/SDF PTSUNNY   45  17  32 S9        30.37F
LOUISVILLE/LOU SUNNY     43  20  39 VRB6      30.39F
FORT KNOX      SUNNY     44  20  37 S12       30.36F
$$

KYZ035>037-039>044-047>052-055>060-089>105-052000-
NORTHEAST KENTUCKY

CITY           SKY/WX    TMP DP  RH WIND       PRES   REMARKS
LEXINGTON      SUNNY     41  16  36 W7        30.38F
COVINGTON      NOT AVBL
FRANKFORT      SUNNY     42  17  36 VRB7      30.37F
$$

KYZ054-064>069-076>088-106>120-052000-
SOUTHEAST KENTUCKY

CITY           SKY/WX    TMP DP  RH WIND       PRES   REMARKS
JACKSON        SUNNY     39  14  36 VRB3      30.37F
LONDON         SUNNY     40  14  34 VRB5      30.38F
SOMERSET       SUNNY     39  14  35 CALM      30.41F
MIDDLESBORO    SUNNY     41  14  32 CALM      30.38F
MONTICELLO     CLEAR     42  14  32 N13       30.42F
$$




USA.gov is the U.S. government's official web portal to all federal, state and local government web resources and services.